Fort Covington, New York, United States (12937)
Lat: 44.99N, Lon: 74.5W
Wx Zone: NYZ027
Local Info
Past Weather Observations for Tuesday, September 16, 2014

NOTE: This archive is for the closest National Weather Service station to Fort Covington. Information may differ from the station used for current weather conditions.

Click here for Long-term Archive

Time Weather Temperature Dewpoint Humidity Pressure Winds Precip Visibility
23:53
Clear
46°F / 8°C 46°F / 8°C 100% 30.01 in
(1016 mb)
SW 5.8 mph
(SW 9 kph)
- 10SM
22:53
Clear
48°F / 9°C 46°F / 8°C 94% 30.01 in
(1016 mb)
SSW 5.8 mph
(SSW 9 kph)
- 10SM
21:53
Clear
48°F / 9°C 46°F / 8°C 94% 29.98 in
(1015 mb)
SW 5.8 mph
(SW 9 kph)
- 10SM
20:53
Clear
48°F / 9°C 46°F / 8°C 94% 29.98 in
(1015 mb)
SW 8.1 mph
(SW 13 kph)
- 10SM
19:53
Clear
48°F / 9°C 46°F / 8°C 94% 29.98 in
(1015 mb)
SW 4.6 mph
(SW 7 kph)
- 10SM
18:53
Clear
52°F / 11°C 48°F / 9°C 88% 29.98 in
(1015 mb)
Calm - 10SM
17:53
Partly Cloudy
59°F / 15°C 48°F / 9°C 68% 29.95 in
(1014 mb)
SW 5.8 mph
(SW 9 kph)
- 10SM
16:53
Clear
63°F / 17°C 46°F / 8°C 56% 29.95 in
(1014 mb)
SSW 9.2 mph
(SSW 15 kph)
- 10SM
15:53
Partly Cloudy
64°F / 18°C 46°F / 8°C 52% 29.95 in
(1014 mb)
SSW 9.2 mph
(SSW 15 kph)
- 10SM
14:53
Partly Cloudy
64°F / 18°C 46°F / 8°C 52% 29.95 in
(1014 mb)
W 6.9 mph
(W 11 kph)
- 10SM
13:53
Mostly Cloudy
64°F / 18°C 46°F / 8°C 52% 29.98 in
(1015 mb)
WNW 12.7 mph
(WNW 20 kph)
- 10SM
12:53
Partly Cloudy
64°F / 18°C 52°F / 11°C 64% 29.98 in
(1015 mb)
WNW 11.5 mph
(WNW 19 kph)
- 10SM
11:53
Partly Cloudy
63°F / 17°C 52°F / 11°C 68% 30.01 in
(1016 mb)
SSW 9.2 mph
(SSW 15 kph)
- 10SM
11:46
Mostly Cloudy
63°F / 17°C 52°F / 11°C 68% 30.01 in
(1016 mb)
SSW 10.4 mph
(SSW 17 kph)
- 10SM
11:36
Partly Cloudy
61°F / 16°C 52°F / 11°C 72% 30.01 in
(1016 mb)
W 10.4 mph
(W 17 kph)
- 10SM
10:53
Overcast
61°F / 16°C 52°F / 11°C 72% 30.01 in
(1016 mb)
NW 8.1 mph
(NW 13 kph)
- 10SM
09:53
Overcast
57°F / 14°C 52°F / 11°C 82% 30.01 in
(1016 mb)
SSW 9.2 mph
(SSW 15 kph)
- 10SM
08:53
Overcast
55°F / 13°C 52°F / 11°C 88% 30.01 in
(1016 mb)
SSW 8.1 mph
(SSW 13 kph)
- 10SM
08:22
Overcast
55°F / 13°C 54°F / 12°C 94% 30.01 in
(1016 mb)
W 5.8 mph
(W 9 kph)
- 10SM
07:53
Overcast
55°F / 13°C 54°F / 12°C 94% 30.01 in
(1016 mb)
SSW 5.8 mph
(SSW 9 kph)
- 10SM
07:39
Mostly Cloudy
55°F / 13°C 54°F / 12°C 94% 30.01 in
(1016 mb)
SSW 5.8 mph
(SSW 9 kph)
- 10SM
07:18
Partly Cloudy
54°F / 12°C 54°F / 12°C 100% 30.01 in
(1016 mb)
SW 5.8 mph
(SW 9 kph)
- 10SM
06:53
Mostly Cloudy
54°F / 12°C 54°F / 12°C 100% 30.01 in
(1016 mb)
SSW 4.6 mph
(SSW 7 kph)
- 7SM
05:53
Overcast
52°F / 11°C 52°F / 11°C 100% 30.01 in
(1016 mb)
SW 4.6 mph
(SW 7 kph)
0.01 in
(0.25 mm)
10SM
04:53
Overcast
52°F / 11°C 52°F / 11°C 100% 30.01 in
(1016 mb)
SW 3.5 mph
(SW 6 kph)
- 9SM
03:53
Mostly Cloudy
52°F / 11°C 52°F / 11°C 100% 30.01 in
(1016 mb)
SW 3.5 mph
(SW 6 kph)
0.00 in
(0.00 mm)
9SM
02:53
Overcast
Light Rain
54°F / 12°C 52°F / 11°C 94% 30.01 in
(1016 mb)
SW 3.5 mph
(SW 6 kph)
0.01 in
(0.25 mm)
10SM
01:53
Overcast
Light Rain
54°F / 12°C 52°F / 11°C 94% 30.01 in
(1016 mb)
Calm 0.00 in
(0.00 mm)
10SM
00:53
Overcast
54°F / 12°C 52°F / 11°C 94% 30.01 in
(1016 mb)
SW 4.6 mph
(SW 7 kph)
- 10SM
Time Weather Temperature Dewpoint Humidity Pressure Winds Precip Visibility


Weather for websites

WeatherForYou.com, LLC is not responsible for any damages or problems caused by this service. Current weather conditions are obtained from the closest station including government and personal stations which may have varying degrees of accuracy. Weather forecasts are derived from the NOAA NDFD. Like all things, this site belongs to Jesus Christ... He just trusts me to maintain it. If you have any questions or comments email webmaster@weatherforyou.com

Copyright © 2014, WeatherForYou.com LLC. All rights reserved.